This is the latest recevied weather packets stored in our database for station/object DH9NFM-12. If no packets are shown the sender has not sent any weather packets the latest 10 day(s).
| Time | Temp. | Humidity | Pressure | Rain* | Wind** | Luminosity | Snow |
|---|---|---|---|---|---|---|---|
| 1777708952 | 15.56° C | 57% | 1022.1 hPa | 0 mm | - | - | - |
| 1777708328 | 15° C | 56% | 1022.1 hPa | 0 mm | - | - | - |
| 1777707703 | 15° C | 56% | 1022.1 hPa | 0 mm | - | - | - |
| 1777707079 | 14.44° C | 56% | 1022.2 hPa | 0 mm | - | - | - |
| 1777706454 | 13.89° C | 56% | 1022.2 hPa | 0 mm | - | - | - |
| 1777705829 | 13.89° C | 58% | 1022.2 hPa | 0 mm | - | - | - |
| 1777705205 | 14.44° C | 57% | 1022.2 hPa | 0 mm | - | - | - |
| 1777704580 | 13.89° C | 57% | 1022.1 hPa | 0 mm | - | - | - |
| 1777703955 | 13.89° C | 60% | 1022.1 hPa | 0 mm | - | - | - |
| 1777703331 | 13.33° C | 59% | 1022.2 hPa | 0 mm | - | - | - |
| 1777702706 | 13.33° C | 60% | 1022.2 hPa | 0 mm | - | - | - |
| 1777702081 | 13.33° C | 60% | 1022.1 hPa | 0 mm | - | - | - |
| 1777701457 | 12.78° C | 61% | 1022.2 hPa | 0 mm | - | - | - |
| 1777700832 | 12.78° C | 62% | 1022.2 hPa | 0 mm | - | - | - |
| 1777700207 | 12.78° C | 62% | 1022.2 hPa | 0 mm | - | - | - |
| 1777699583 | 12.22° C | 62% | 1022.2 hPa | 0 mm | - | - | - |
| 1777698958 | 12.22° C | 64% | 1022.2 hPa | 0 mm | - | - | - |
| 1777698333 | 12.22° C | 62% | 1022.2 hPa | 0 mm | - | - | - |
| 1777697709 | 11.67° C | 63% | 1022.1 hPa | 0 mm | - | - | - |
| 1777697084 | 11.67° C | 62% | 1022.1 hPa | 0 mm | - | - | - |
| 1777696459 | 11.67° C | 62% | 1022.1 hPa | 0 mm | - | - | - |
| 1777695835 | 11.67° C | 62% | 1022.2 hPa | 0 mm | - | - | - |
| 1777695210 | 11.67° C | 62% | 1022.2 hPa | 0 mm | - | - | - |
| 1777694586 | 11.67° C | 62% | 1022.2 hPa | 0 mm | - | - | - |
| 1777693961 | 11.11° C | 62% | 1022.3 hPa | 0 mm | - | - | - |
* Rain latest hour (hover to see other rain measurements)
** Current wind speed in m/s (hover to see current wind gust speed)